Location: London
(51.5074°N, 0.1278°W)
Time: 23:35:37
(UTC+01:00)

ISS - Pass Details

Date: 28 March 2018
Orbit: 402 x 408 km, 51.6° (Epoch: 16 July)

Event Time Altitude Azimuth Distance (km) Brightness Sun altitude
Rises 21:00:43 0° 247° (WSW) 2,349 0.7 -14.8°
Reaches altitude 10° 21:02:48 10° 245° (WSW) 1,489 -0.4 -15.1°
Maximum altitude 21:06:07 65° 163° (SSE) 461 -3.8 -15.6°
Enters shadow 21:07:16 37° 94° (E) 672 -3.2 -15.7°
